Location: Poughquag
(41.6090°N, 73.6820°W)
Time: 02:21:41
(UTC-04:00)

Transit 2A Rocket - Pass Details

Date: 29 May 2020
Orbit: 584 x 919 km, 66.7° (Epoch: 06 July)

Event Time Altitude Azimuth Distance (km) Brightness Sun altitude
Rises 09:56:47 0° 315° (NW) 3,538 8.1 48.3°
Reaches altitude 10° 09:59:57 10° 299° (WNW) 2,610 7.5 48.9°
Maximum altitude 10:04:12 20° 255° (WSW) 1,992 7.0 49.6°
Drops below altitude 10° 10:08:25 10° 211° (SSW) 2,588 7.8 50.4°
Sets 10:11:34 0° 195° (SSW) 3,497 8.4 51.0°
